GFSGL_850_spd_273.txt.gz
Wind_Speed
14 11 11 9 7 6 4 2 1 4 9 13 18 20 20 17 15 17 17 15 14 16 16 16 17 15 15 14 13 10 8 8 8 13 11 7 5 11 8 9 9 13 17
18 12 11 6 5 5 5 5 5 9 12 17 20 22 19 16 16 16 17 18 17 19 20 18 16 15 16 16 11 13 13 9 9 12 12 12 8 9 11 12 11 14 17
18 14 13 10 9 10 9 9 10 11 14 19 23 21 19 18 17 16 17 19 20 19 21 22 21 20 20 18 19 18 13 12 12 9 12 14 11 11 12 10 11 12 13
18 20 12 12 12 11 12 14 14 15 18 22 23 20 20 19 18 16 17 18 22 26 28 27 24 22 21 21 23 22 17 15 12 9 10 10 12 11 12 12 10 9 13
17 19 17 15 12 12 14 15 17 19 21 24 24 23 22 21 16 16 20 23 27 31 30 26 21 19 19 20 22 20 21 23 19 17 13 10 9 8 14 13 12 8 11
24 19 16 12 9 10 14 16 18 21 24 26 26 24 27 22 20 21 22 24 26 30 26 19 15 15 14 11 15 18 18 18 17 14 16 15 9 11 9 8 11 13 14
22 16 11 6 5 8 12 15 19 21 25 28 29 27 26 21 18 19 21 23 24 27 18 15 15 16 15 15 14 16 16 16 15 14 16 16 15 7 11 10 9 12 12
14 10 8 8 10 12 15 18 19 21 24 27 29 29 25 20 21 21 24 25 23 16 14 14 13 17 17 17 15 14 17 19 18 20 20 20 17 8 8 12 11 12 11
14 14 12 14 15 18 21 22 22 23 25 27 28 28 24 23 24 22 20 18 17 17 14 13 12 14 15 17 17 17 17 20 24 29 27 26 23 19 17 17 17 14 15
12 11 13 15 18 20 22 24 25 24 26 26 28 25 18 19 19 16 16 18 17 17 16 13 16 15 16 16 17 19 21 23 26 25 28 36 33 26 22 21 18 16 16
8 8 11 16 18 18 19 21 23 24 23 21 17 18 17 17 16 15 16 16 16 18 20 22 15 14 18 20 20 23 25 27 28 29 28 26 29 33 22 17 16 14 16
5 9 11 13 16 18 16 17 17 19 19 18 18 17 17 17 17 18 19 19 19 22 23 21 17 19 23 24 26 25 25 23 27 31 31 27 25 26 24 17 13 16 16
8 10 13 12 12 10 13 15 22 18 17 18 19 20 20 18 19 18 20 21 20 21 20 20 21 21 20 19 20 23 23 23 20 23 23 23 20 19 22 22 20 17 16
14 14 12 12 17 21 21 18 21 21 21 21 23 24 26 25 23 22 24 25 27 27 26 26 27 28 30 34 27 19 15 18 19 19 19 19 19 20 21 20 21 22 20
13 15 18 20 20 21 21 22 23 23 23 25 25 26 28 30 29 29 27 29 29 30 29 31 33 33 32 30 27 21 15 16 19 19 19 20 19 20 20 17 17 18 20
20 20 20 20 21 23 24 26 25 25 27 26 24 23 23 25 25 27 31 32 30 29 30 32 34 32 28 27 27 25 19 18 18 16 18 17 18 20 21 17 13 11 17
19 19 20 21 23 25 26 27 31 29 25 24 24 23 23 26 28 33 31 27 27 27 29 31 32 31 30 27 25 21 20 19 19 20 17 17 16 16 16 18 19 15 9
16 15 18 22 23 23 24 25 26 28 30 30 28 28 27 25 26 26 25 25 26 24 26 27 25 22 21 21 17 15 14 15 16 21 21 19 18 17 17 17 15 14 11
16 17 20 23 23 23 23 23 24 26 29 31 32 30 27 25 24 24 24 23 24 24 24 24 23 21 19 17 15 14 15 14 13 16 18 18 17 18 18 18 19 14 15
18 19 21 25 27 27 26 26 28 29 30 30 29 29 28 27 27 26 20 19 21 21 20 23 22 21 19 17 19 17 16 15 14 16 18 19 19 20 18 18 17 17 17
21 23 27 27 29 29 29 28 30 31 31 30 28 27 25 25 25 22 20 21 20 22 22 19 19 21 22 19 17 17 17 18 15 15 16 18 17 17 18 18 15 13 17
23 25 28 30 28 31 31 31 32 32 32 30 29 28 26 24 23 22 22 21 21 19 17 20 19 18 20 20 19 21 20 17 17 14 14 16 17 16 15 17 15 12 14
24 26 30 31 29 30 31 32 33 33 33 31 29 30 29 26 24 23 21 21 19 17 17 17 19 19 18 19 19 21 21 21 16 14 13 15 15 16 17 16 13 12 16
22 25 30 32 32 30 32 34 35 35 34 32 30 30 29 27 26 23 21 20 20 19 20 18 17 19 19 17 17 18 19 21 19 18 15 15 16 16 16 17 11 13 15
23 25 29 33 33 33 34 35 37 36 35 33 31 30 29 28 26 24 21 20 20 20 19 19 20 17 16 15 15 14 16 15 19 18 17 15 18 17 14 12 13 11 13
28 29 29 32 33 34 35 36 37 38 37 35 32 30 29 29 27 25 22 21 20 21 19 16 15 16 13 14 13 13 13 17 16 15 19 17 17 14 10 12 16 14 10

GFSGL_850_spd_276.txt.gz
Wind_Speed
15 15 12 10 12 11 9 6 3 2 5 8 12 16 19 16 16 17 17 18 16 16 17 17 15 16 16 16 14 11 9 11 13 13 13 5 7 7 9 14 15 17 20
17 14 12 12 7 6 6 4 5 6 9 12 15 19 19 17 17 17 18 18 18 18 18 18 19 18 18 18 17 17 14 11 12 13 13 9 7 10 16 18 16 15 15
16 11 12 10 7 5 5 7 9 11 12 15 17 20 21 21 21 19 18 17 18 19 21 24 26 26 23 20 19 20 17 15 12 13 13 11 10 11 12 11 13 14 16
21 18 17 12 10 8 9 10 11 14 16 18 20 22 23 22 22 20 17 18 21 25 26 28 27 22 20 18 19 19 18 19 18 14 11 12 10 4 14 15 7 10 12
28 26 21 17 15 13 14 13 14 16 18 20 23 25 25 24 24 21 21 22 23 26 30 24 18 15 13 13 14 14 15 18 17 18 19 15 12 10 10 14 9 3 7
33 29 27 24 19 17 16 14 16 18 19 23 26 28 27 28 28 23 20 20 22 25 28 23 14 12 10 9 11 12 12 14 15 14 15 15 11 10 14 13 11 10 13
33 32 28 21 17 14 14 15 17 18 21 25 27 29 30 30 28 23 21 24 27 23 22 17 17 12 12 12 11 11 13 13 13 13 14 16 14 9 12 16 14 11 14
33 30 24 22 18 16 15 14 14 17 22 24 27 29 31 30 28 26 26 25 25 18 15 16 16 13 14 15 14 13 12 12 14 15 17 15 18 14 11 12 12 15 15
31 30 25 15 15 12 12 14 17 20 22 25 26 27 29 30 25 18 17 17 17 18 15 15 16 16 15 15 15 14 13 15 17 19 19 18 20 21 21 19 17 16 21
17 12 9 11 11 12 15 18 19 20 21 22 23 21 19 18 16 15 16 15 16 16 16 16 18 20 17 17 18 18 18 19 21 22 23 25 25 24 24 24 23 22 21
5 2 3 9 12 14 15 15 17 17 18 22 21 17 14 14 16 16 16 20 18 19 20 21 20 19 17 21 21 20 22 26 27 28 27 26 24 26 30 28 22 17 24
3 4 8 12 14 13 15 15 17 19 21 17 17 17 16 16 17 18 18 20 20 22 22 22 21 21 21 23 26 26 24 24 25 24 22 22 20 19 20 26 28 24 19
5 8 11 13 15 16 18 18 18 16 18 18 20 21 25 24 23 22 23 23 24 25 26 27 27 27 27 26 27 26 25 22 20 20 21 19 16 13 14 18 25 27 21
16 15 16 15 14 14 15 15 16 17 18 19 22 24 26 28 27 27 26 26 29 30 30 30 30 33 35 35 33 31 25 19 18 18 19 17 15 13 13 14 18 25 22
13 13 12 13 14 16 17 17 17 17 20 23 25 27 28 27 25 24 25 27 28 30 31 34 32 32 32 31 29 28 25 22 17 15 16 17 16 13 10 11 11 11 14
13 11 13 16 18 18 20 21 18 17 16 17 18 19 22 25 26 28 29 29 31 33 34 33 33 32 32 31 29 28 26 24 20 18 16 15 14 13 10 7 11 10 10
12 14 16 19 21 20 22 21 24 23 21 21 20 21 23 28 31 32 32 30 28 27 28 30 30 29 29 28 25 22 21 17 16 18 19 18 13 10 9 7 7 13 14
12 14 18 19 22 22 22 20 21 23 29 30 25 22 22 23 24 25 25 27 27 24 23 24 25 23 21 19 19 17 15 14 13 13 16 18 17 15 12 9 9 8 10
17 18 20 21 22 24 24 25 26 28 29 29 29 26 24 23 23 22 20 19 19 19 20 20 20 20 20 19 17 16 14 13 12 12 12 15 17 16 14 12 10 12 10
18 19 23 26 25 26 26 27 28 29 29 29 28 27 27 26 25 23 20 18 18 19 18 18 18 17 19 18 16 16 16 14 13 12 12 13 14 14 15 14 12 13 15
20 23 27 29 29 26 26 26 28 30 29 29 28 26 24 24 25 23 22 20 20 20 19 19 17 16 16 17 18 16 14 14 15 14 13 12 14 14 13 14 14 13 13
21 24 27 29 29 27 27 27 28 30 29 29 28 26 25 25 25 24 23 20 19 18 18 16 16 16 17 15 16 17 18 19 17 16 15 13 13 13 13 13 14 15 14
22 24 26 28 29 29 28 29 28 28 29 29 28 27 27 27 26 25 23 21 19 18 17 17 18 17 17 17 15 17 19 20 19 16 15 13 12 12 14 14 14 16 16
27 28 26 27 29 29 29 30 31 31 31 31 30 28 27 27 26 25 23 21 20 18 17 18 17 21 19 16 16 16 18 18 18 19 17 14 13 13 13 16 16 16 16
28 30 27 27 29 30 30 31 31 32 33 33 31 28 27 27 26 25 23 22 19 18 18 18 17 16 19 17 15 15 14 15 17 19 19 19 16 15 14 16 16 15 13
29 29 28 26 27 29 31 31 32 33 34 35 33 30 28 28 27 26 24 23 21 18 17 15 14 13 13 16 14 13 13 14 16 16 19 18 17 16 15 13 13 14 10

GFSGL_850_spd_279.txt.gz
Wind_Speed
21 20 19 17 17 17 13 12 9 6 4 5 6 9 14 15 15 15 16 16 16 16 16 16 17 18 18 17 18 17 15 15 18 22 16 17 18 8 12 7 9 15 18
23 22 20 17 17 15 14 12 9 6 6 8 9 11 15 18 17 17 17 17 16 17 18 20 21 23 23 22 20 20 21 16 18 22 19 17 15 15 11 13 14 15 16
23 23 20 19 16 14 12 9 7 6 8 10 11 13 15 19 18 18 18 17 17 20 23 24 26 27 24 20 18 18 19 21 20 21 22 16 14 13 11 12 17 20 17
24 23 20 19 15 11 9 8 6 7 9 11 14 15 17 20 20 19 19 19 18 19 23 25 24 22 17 15 14 14 15 18 20 21 21 20 15 13 12 10 13 12 19
27 25 23 19 14 12 11 10 9 9 10 13 16 18 20 22 23 23 23 20 19 19 21 25 23 16 12 11 13 13 13 14 16 18 18 19 20 17 15 13 10 17 15
29 27 22 20 19 18 13 10 11 13 15 16 18 22 23 25 26 25 23 22 21 22 22 20 16 13 10 10 9 10 14 15 16 14 17 17 17 16 15 14 12 13 12
33 33 27 25 23 19 17 15 13 15 17 19 21 24 27 28 29 26 23 24 22 20 19 14 13 12 8 10 11 10 9 10 12 13 15 15 13 13 17 16 10 6 12
34 35 28 27 23 20 15 13 14 18 21 23 25 27 29 28 27 25 25 20 14 11 12 13 12 14 11 12 11 10 9 12 13 13 16 19 20 19 20 20 18 13 10
31 32 33 30 21 10 11 15 17 20 23 25 26 26 25 23 20 18 18 15 14 13 12 12 14 13 16 15 14 14 12 14 16 18 19 23 23 23 23 23 20 20 19
33 26 12 4 6 13 15 13 18 20 21 20 21 20 17 15 12 15 13 14 14 16 15 13 16 17 18 16 16 17 19 19 21 24 25 26 27 28 27 26 24 23 21
17 7 1 3 9 11 14 13 15 16 17 20 19 18 18 15 14 14 15 17 18 18 17 17 17 18 18 18 18 19 22 24 26 27 25 24 22 22 25 27 30 26 24
6 1 1 2 5 7 11 12 15 19 18 17 18 17 17 18 18 19 18 19 21 21 21 21 20 20 21 22 22 21 22 24 24 25 26 23 20 19 17 19 25 29 30
6 4 4 1 3 7 10 12 12 13 15 17 18 19 21 22 24 23 23 22 22 24 24 26 28 29 27 28 29 28 27 31 29 27 24 20 16 15 15 15 18 22 26
7 4 6 4 5 6 8 13 16 17 16 16 19 23 26 26 24 22 23 22 22 24 27 28 28 29 28 28 27 24 23 22 21 21 21 17 14 13 12 12 13 16 20
8 8 9 9 9 10 9 9 9 8 11 16 18 21 22 26 25 25 27 28 28 27 29 31 32 32 33 31 28 25 23 21 21 19 19 15 13 13 12 9 11 11 11
11 12 11 10 12 11 12 13 12 14 13 11 14 18 21 24 28 30 32 34 35 34 33 32 32 30 27 27 27 25 21 20 19 18 18 16 13 12 10 9 10 14 11
13 13 16 17 18 18 20 20 23 19 18 17 17 17 17 20 22 24 25 25 26 26 27 28 27 27 27 24 22 21 18 16 15 15 15 15 17 13 9 9 7 11 14
18 20 22 23 21 21 23 21 20 23 26 25 22 21 20 21 21 21 20 21 21 18 18 17 20 21 21 20 19 18 16 13 13 12 12 12 16 16 13 10 9 8 9
22 23 24 24 24 21 20 19 21 24 26 26 27 24 22 23 23 21 19 19 19 19 17 17 17 18 18 18 18 16 14 14 12 10 10 10 12 15 17 15 12 13 13
20 23 24 22 22 22 21 22 22 24 26 26 26 25 25 25 25 25 22 21 20 19 20 19 19 19 17 17 16 16 15 13 14 12 12 11 11 14 16 16 16 13 15
18 18 20 23 24 25 25 24 24 24 25 26 25 24 22 23 25 24 24 23 22 20 20 18 19 18 18 16 16 16 16 15 12 13 11 11 11 12 12 14 15 16 15
22 23 22 24 25 25 26 25 26 26 26 26 27 25 23 23 24 25 25 24 22 20 19 18 19 17 16 17 16 15 16 17 15 14 13 12 11 12 14 14 14 15 16
27 26 24 23 24 26 26 27 27 27 28 28 28 27 26 24 24 25 24 23 23 22 20 19 19 19 19 21 16 18 18 19 18 17 16 14 14 13 14 15 14 15 17
28 26 25 25 26 26 28 28 28 28 28 30 30 29 27 25 25 24 23 23 23 22 20 18 19 20 19 19 22 16 18 18 18 18 17 15 13 13 13 13 14 15 17
28 26 25 25 26 27 28 29 30 29 29 30 32 30 27 25 24 24 25 25 24 23 20 17 18 18 16 16 19 18 16 16 16 18 19 20 18 15 12 12 14 16 14
27 26 25 25 26 26 27 30 31 30 30 31 32 32 29 27 26 26 26 26 24 22 22 17 15 15 14 13 15 18 16 15 15 16 18 21 19 16 15 16 14 15 16

GFSGL_850_spd_285.txt.gz
Wind_Speed
26 27 28 27 26 22 21 21 22 22 18 13 9 6 4 4 5 7 9 12 14 15 17 18 19 20 21 21 20 17 14 14 21 25 21 23 25 21 18 18 15 12 10
30 29 30 30 27 22 22 21 21 19 16 11 8 7 7 8 7 9 10 13 15 18 20 21 21 21 21 21 19 18 16 16 17 23 21 22 21 22 18 17 16 13 12
33 33 33 29 24 24 23 24 22 18 14 13 11 10 9 9 10 10 11 14 16 19 20 22 22 21 20 19 18 15 15 15 15 18 20 18 19 18 21 12 14 13 12
33 33 31 23 20 22 25 25 24 19 16 15 13 10 11 10 10 12 14 17 18 19 20 21 21 19 17 16 13 12 13 14 15 16 18 17 16 16 15 17 12 10 8
31 28 26 22 22 26 27 26 24 19 17 16 13 13 12 11 13 16 18 19 19 20 20 20 19 18 15 14 13 13 13 13 13 15 15 13 12 13 16 15 13 11 6
32 28 29 24 26 27 26 25 23 21 19 17 16 13 12 14 17 19 20 21 20 19 18 17 16 16 13 13 13 13 14 13 13 13 15 13 8 10 13 14 13 12 7
25 28 28 27 28 27 27 24 22 21 18 16 12 13 15 17 20 21 22 19 17 15 15 15 14 11 15 12 14 16 16 17 16 15 14 18 16 9 17 16 14 14 12
27 28 25 28 28 31 31 28 24 20 17 14 11 13 18 17 18 19 18 15 13 16 14 13 13 13 14 15 15 15 15 14 13 14 15 17 21 19 19 21 22 20 17
28 27 25 27 30 28 26 22 15 9 13 13 13 14 17 19 19 15 14 12 15 14 15 13 15 15 16 16 18 18 17 15 16 19 21 23 22 22 22 24 19 17 17
23 22 21 23 23 22 18 5 7 9 13 16 13 14 17 20 18 14 14 13 15 16 16 14 16 16 19 18 19 20 20 17 17 18 18 20 22 25 28 28 21 19 16
24 23 21 19 17 13 7 8 9 14 17 17 17 18 19 18 18 17 17 15 15 16 18 17 16 19 19 21 22 22 21 24 26 25 21 18 17 16 13 12 13 14 15
21 18 14 10 5 2 4 8 11 13 15 18 19 18 19 18 16 19 21 22 22 20 19 19 18 22 23 23 25 27 28 29 23 21 19 17 17 13 12 11 13 14 16
18 15 9 4 1 4 11 10 10 10 12 15 15 14 13 12 12 15 18 20 21 20 18 22 27 27 27 27 29 28 28 25 23 22 20 18 16 15 14 13 13 14 17
18 13 7 3 4 2 4 8 8 8 10 11 12 13 16 16 17 20 22 23 21 22 25 27 30 30 31 32 32 30 24 23 21 20 19 16 15 17 12 10 12 11 13
19 16 10 8 11 9 6 5 5 6 9 10 12 15 16 18 15 21 23 23 22 24 27 29 29 25 25 27 27 26 21 17 17 16 16 15 15 13 11 10 11 10 11
18 17 10 12 11 8 6 5 9 9 8 11 14 16 17 18 17 16 19 20 19 22 24 24 25 23 20 20 19 18 17 17 15 14 14 14 14 13 11 10 11 10 10
20 19 16 16 14 12 11 11 13 13 13 11 12 13 14 14 13 15 18 19 19 19 21 20 20 22 20 17 16 15 16 16 15 15 14 14 14 12 10 11 10 10 8
18 17 16 16 17 16 17 17 17 17 16 15 17 17 16 16 16 16 17 18 18 18 21 19 19 19 19 19 16 15 15 15 15 14 14 14 12 11 11 12 10 8 7
19 18 19 19 19 18 17 15 15 16 18 20 20 20 19 19 17 14 15 16 18 20 20 20 18 19 18 17 14 16 13 14 13 12 12 12 11 11 10 12 11 11 9
22 22 21 20 18 18 19 18 18 21 21 20 20 21 22 22 18 17 15 16 18 20 20 20 19 17 16 16 14 12 13 13 12 12 12 13 14 12 12 11 11 10 8
27 24 22 19 18 18 19 20 20 19 21 21 21 21 22 21 19 18 18 18 19 19 20 21 21 19 16 15 14 13 11 14 14 11 13 13 12 13 12 13 11 10 11
25 23 22 21 19 18 18 17 20 22 23 23 23 23 23 23 21 19 19 19 19 20 22 22 21 20 18 16 16 14 15 16 10 13 11 11 13 12 13 11 11 12 13
22 20 18 18 18 18 19 19 19 21 23 25 25 26 24 25 23 21 20 20 20 21 21 21 21 21 19 16 15 16 16 15 15 11 14 12 13 13 10 12 12 11 13
20 17 17 17 18 19 19 21 22 23 25 26 27 28 25 26 26 22 21 20 20 21 20 20 21 21 19 18 15 16 15 15 17 15 14 15 13 14 11 9 10 13 12
23 19 17 18 19 21 22 22 23 25 26 28 29 29 27 28 26 22 21 21 22 22 22 22 21 19 18 17 16 15 14 15 22 19 17 17 16 13 15 11 10 11 12
27 24 22 21 21 22 24 25 26 27 28 30 31 31 29 29 25 23 22 22 23 24 23 22 20 17 16 16 14 10 13 15 20 20 20 18 17 15 17 14 12 10 12

GFSGL_850_spd_291.txt.gz
Wind_Speed
29 32 34 32 30 28 29 26 29 30 25 21 19 18 16 14 12 12 13 5 3 1 3 4 7 11 8 10 10 10 12 14 19 22 22 22 24 21 19 17 18 15 13
28 28 25 28 34 36 29 31 32 26 21 20 19 19 18 14 11 9 9 6 4 1 3 7 8 8 12 12 11 13 14 15 17 22 23 23 22 21 21 19 18 16 12
28 31 31 33 33 29 30 29 25 23 23 22 20 18 15 13 12 10 7 6 4 4 6 8 9 11 12 11 11 13 13 14 15 17 20 19 18 17 16 18 19 17 15
23 29 31 27 27 28 26 26 25 23 22 20 18 16 14 12 9 8 7 5 4 3 7 10 11 11 11 15 15 12 12 14 15 15 15 15 14 17 16 19 21 17 18
26 26 30 27 26 24 24 23 23 23 21 19 18 16 14 10 10 11 7 4 6 8 10 11 9 15 17 15 13 14 14 13 15 16 16 14 14 15 15 14 17 18 16
21 23 24 26 23 22 23 24 22 20 19 18 17 15 12 14 16 14 11 10 10 9 9 9 11 13 14 16 18 19 17 14 12 14 15 15 16 14 14 15 18 20 22
16 21 22 22 21 21 20 21 19 21 21 16 13 12 12 17 18 14 12 12 11 10 9 10 11 10 13 12 14 17 18 17 18 18 16 15 14 14 19 20 19 20 23
19 20 25 21 21 21 22 23 24 23 20 24 25 22 12 13 11 13 15 14 11 10 9 10 13 13 11 15 14 15 15 15 14 16 16 17 20 21 21 21 24 25 24
22 22 23 24 28 27 28 31 31 31 29 27 20 15 13 14 15 15 15 13 8 10 11 11 12 14 15 20 18 16 16 15 13 19 21 22 22 25 25 19 17 18 21
29 27 30 31 28 32 32 31 30 23 19 17 15 13 12 12 13 15 17 15 11 10 11 9 15 12 18 22 21 16 18 18 19 20 20 20 22 21 17 12 16 16 18
23 24 25 25 27 27 26 21 19 16 12 9 5 5 7 12 14 17 16 12 8 9 9 10 14 20 22 24 27 28 22 24 24 24 20 20 18 16 14 15 15 17 21
31 31 27 26 23 21 19 15 13 8 5 6 7 10 9 9 10 14 18 19 19 15 12 12 16 25 25 29 31 31 30 29 25 24 22 19 19 18 15 15 19 20 22
32 28 24 21 19 14 10 5 5 6 6 3 1 1 1 2 8 14 19 17 14 14 12 16 19 19 21 22 18 19 20 22 21 19 22 18 17 17 20 22 19 16 19
25 22 20 14 16 15 12 8 10 8 6 3 4 2 3 4 5 8 12 12 13 11 14 16 19 18 15 14 15 14 14 14 17 21 20 17 17 16 17 17 16 15 14
21 20 14 19 18 17 11 9 9 11 7 2 4 5 6 4 11 19 20 18 16 16 20 19 15 12 12 12 12 12 14 13 13 16 16 15 12 13 15 14 13 14 15
16 15 18 18 14 12 10 11 15 16 11 8 9 9 7 13 16 17 17 17 18 18 18 16 12 11 14 13 12 13 12 12 11 11 12 14 12 12 14 12 13 14 17
20 19 15 14 11 10 8 8 8 11 14 18 19 16 17 14 17 19 19 19 15 14 15 11 12 13 14 12 15 13 14 13 12 11 10 10 10 13 12 12 13 13 15
20 20 15 11 11 8 8 9 9 9 9 10 15 18 19 21 21 19 19 16 11 8 12 11 13 14 14 13 13 12 13 14 10 12 9 10 11 12 12 12 12 12 12
18 17 12 12 12 11 10 10 9 9 9 10 11 13 16 21 20 17 17 15 14 12 11 11 13 13 14 14 14 14 13 12 13 12 11 11 11 11 12 13 13 13 13
16 20 16 13 13 13 12 11 11 11 11 12 13 14 16 25 19 16 15 14 14 14 14 13 13 14 15 15 16 15 14 12 12 10 11 9 12 12 13 14 14 13 10
16 15 15 13 12 12 12 14 14 13 14 15 15 18 26 24 19 19 18 16 16 16 15 15 15 16 16 16 15 15 15 14 13 11 11 12 14 12 13 13 13 13 12
19 18 17 16 16 16 16 15 15 15 16 16 17 17 22 21 20 19 18 17 17 16 16 17 17 18 17 17 16 16 16 15 13 11 13 13 13 13 12 13 12 12 11
23 22 20 19 18 18 18 18 18 19 19 18 19 21 23 26 24 23 22 20 18 19 19 19 19 19 19 18 19 19 18 16 14 12 13 12 13 12 12 13 13 11 11
25 25 24 23 22 21 21 20 20 20 20 20 21 23 28 29 29 27 24 22 21 22 22 22 22 23 23 22 21 20 19 17 15 15 12 17 18 12 15 12 14 12 11
25 25 24 23 21 21 21 20 21 21 21 22 23 26 30 31 30 30 26 24 22 24 26 26 24 22 22 22 23 21 21 21 21 19 20 18 20 15 14 14 14 12 10
23 23 23 22 21 21 20 20 21 21 22 23 25 29 30 31 31 30 27 25 25 27 26 24 23 22 22 22 22 20 20 21 23 20 20 20 20 21 12 15 12 14 13